Regional Weather Roundup
Issued by NWS Midland/Odessa, TX

Skip options and go directly to product.
Home | Oldest Version | Previous Version | Current Version | All | Graphics & Text | Save Text | Print | Product List | Glossary On

Skip product version selection by date and time.   
204
ASUS44 KMAF 251501
RWRMAF
MIDLAND AREA WEATHER ROUNDUP
NATIONAL WEATHER SERVICE MIDLAND TX
1000 AM CDT THU AUG 25 2016

...IN SOUTHWEST TEXAS AND SOUTHEAST NEW MEXICO...

CITY           SKY/WX    TMP DP  RH WIND       PRES   REMARKS
ALPINE         CLOUDY    68  58  70 S6        30.27R
ANDREWS        NOT AVBL
ARTESIA        CLOUDY    66  66 100 N8        30.18R
BIG SPRING     MOSUNNY   78  71  79 S13       30.15R
CARLSBAD       CLOUDY    67  64  90 NW14      30.15R
DRYDEN           N/A     76  69  79 VRB7      30.10R
FORT STOCKTON  MOSUNNY   79  64  60 S12       30.13R
GUAD PASS      CLOUDY    65  62  90 E7        30.26S
HOBBS          CLOUDY    66  66 100 SE3       30.17R
MARFA          PTSUNNY  N/A N/A N/A CALM      30.26R
MIDLAND AIRPK  CLOUDY    78  67  67 S12       30.14R
MIDLAND INTL   CLOUDY    76  66  71 S13G23    30.13R
ODESSA         CLOUDY    77  66  68 S16       30.14R
PECOS          CLOUDY    69  66  88 CALM      30.11R
PRESIDIO       NOT AVBL
SEMINOLE       PTSUNNY   71  67  87 S5        30.16S
SNYDER           N/A     74  68  80 S9        30.15R
WINK           PTSUNNY   73  68  84 SE13      30.10R
$$
...OTHER STATIONS IN TEXAS...

CITY           SKY/WX    TMP DP  RH WIND       PRES   REMARKS
ABILENE        SUNNY     79  68  69 SW13      30.13R
AMARILLO       MOSUNNY   65  61  87 NW7       30.19S
AUSTIN         MOSUNNY   82  74  76 VRB3      30.10R
BROWNSVILLE    SUNNY     87  74  64 SE8       30.04R
CORPUS CHRISTI PTSUNNY   86  78  77 S6        30.05R
DALLAS FTW     MOSUNNY   85  71  63 S13       30.09R
DEL RIO        PTSUNNY   77  71  82 SE10      30.07R
EL PASO        PTSUNNY   72  55  55 N8        30.15R
HOUSTON INT    PTSUNNY   86  77  74 SE5       30.08S
LUBBOCK        PTSUNNY   72  67  84 S8        30.17R
SAN ANGELO     MOSUNNY   78  68  71 S12       30.12R
SAN ANTONIO    MOSUNNY   80  71  74 S10       30.10R
WACO           SUNNY     82  73  74 S7        30.11R
WICHITA FALLS  NOT AVBL
$$
...OTHER LOCATIONS IN NEW MEXICO...

CITY           SKY/WX    TMP DP  RH WIND       PRES   REMARKS
ALAMAGORDO     PTSUNNY   66  55  68 CALM      30.19R
ALBUQUERQUE    PTSUNNY   64  50  60 N6        30.27R
CANNON AFB     CLOUDY    66  59  77 NE8       30.22R
CLOVIS         CLOUDY    64  55  72 NE9       30.22R
HOLLOMAN AFB   CLOUDY    62  55  80 CALM      30.16R
ROSWELL        PTSUNNY   70  59  68 N10       30.18R
RUIDOSO          N/A     55  50  82 CALM      30.35R
SANTA FE       SUNNY     62  49  62 NE7       30.32S
TRUTH OR CONSE SUNNY     69  50  50 NE6       30.22R
TUCUMCARI      MOSUNNY   68  57  68 NE8       30.22R
$$

USA.gov is the U.S. government's official web portal to all federal, state and local government web resources and services.